Akron Canton, OH

6:13 AM EDT on June 28, 2017 (GMT -0400)
Akron-Canton Regional

Weather History for KCAK - May, 2014

Change the Weather History Date:

Friday, May 23, 2014

  Actual Average Record
Temperature  
Mean Temperature 58 °F 61 °F  
Max Temperature 65 °F 71 °F 92 °F (1991)
Min Temperature 51 °F 51 °F 32 °F (1967)
Degree Days  
Heating Degree Days 7 6  
Month to date heating degree days 152 188  
Since 1 July heating degree days 6403 6064  
Cooling Degree Days 0 2  
Month to date cooling degree days 44 19  
Year to date cooling degree days 47 25  
Growing Degree Days 8 (Base 50)    
Moisture  
Dew Point 47 °F    
Average Humidity 66    
Maximum Humidity 83    
Minimum Humidity 48    
Precipitation  
Precipitation 0.00 in 0.15 in 1.41 in (2000)
Month to date precipitation 3.31 3.14  
Year to date precipitation 15.64 14.59  
Snow  
Snow 0.00 in 0.00 in - ()
Month to date snowfall T 0.1  
Since 1 July snowfall 69.9 47.5  
Snow Depth 0.00 in    
Sea Level Pressure  
Sea Level Pressure 30.08 in    
Wind  
Wind Speed 9 mph (NNW)    
Max Wind Speed 20 mph    
Max Gust Speed 20 mph    
Visibility 10 miles    
Events      
T = Trace of Precipitation, MM = Missing Value Source: NWS Daily Summary

Daily Weather History Graph

Daily Weather History Graph

Search for Another Location

Airport or City:

Trip Planner

Search our weather history database for the weather conditions in past years. The results will help you decide how hot, cold, wet, or windy it might be!

Date:

Astronomy

May. 23, 2014 Rise Set
Actual Time 6:01 AM EDT 8:44 PM EDT
Civil Twilight 5:29 AM EDT 9:16 PM EDT
Nautical Twilight 4:49 AM EDT 9:56 PM EDT
Astronomical Twilight 4:03 AM EDT 10:42 PM EDT
Moon 2:57 AM EDT (5/23) 3:33 PM EDT (5/23)
Length of Visible Light 15h 46m
Length of Day
14h 42m
Waning Crescent, 27% of the Moon is Illuminated
May 23
Waning Crescent
May 28
New
Jun 5
First Quarter
Jun 13
Full
Jun 19
Last Quarter

Hourly Weather History & Observations

Time (EDT) Temp. Dew Point Humidity Pressure Visibility Wind Dir Wind Speed Gust Speed Precip Events Conditions
12:51 AM 57.0 °F 48.0 °F 72% 30.01 in 10.0 mi West 5.8 mph - N/A   Partly Cloudy
1:51 AM 55.9 °F 48.9 °F 77% 30.00 in 10.0 mi West 3.5 mph - N/A   Partly Cloudy
2:51 AM 55.0 °F 50.0 °F 83% 30.00 in 10.0 mi WNW 6.9 mph - N/A   Mostly Cloudy
3:51 AM 55.0 °F 50.0 °F 83% 30.00 in 10.0 mi NW 6.9 mph - N/A   Mostly Cloudy
4:51 AM 55.4 °F 48.2 °F 77% 30.01 in 10.0 mi North 9.2 mph - N/A   Mostly Cloudy
5:51 AM 54.0 °F 48.9 °F 83% 30.01 in 10.0 mi North 5.8 mph - N/A   Mostly Cloudy
6:51 AM 53.1 °F 48.0 °F 83% 30.04 in 10.0 mi North 9.2 mph - N/A   Mostly Cloudy
7:51 AM 57.9 °F 48.0 °F 70% 30.05 in 10.0 mi NNW 6.9 mph - N/A   Mostly Cloudy
8:51 AM 60.1 °F 46.0 °F 60% 30.06 in 10.0 mi NNW 9.2 mph - N/A   Scattered Clouds
9:51 AM 62.1 °F 46.0 °F 56% 30.06 in 10.0 mi North 13.8 mph - N/A   Scattered Clouds
10:51 AM 60.1 °F 46.0 °F 60% 30.08 in 10.0 mi North 18.4 mph - N/A   Mostly Cloudy
11:51 AM 62.1 °F 44.1 °F 52% 30.09 in 10.0 mi NNW 13.8 mph - N/A   Mostly Cloudy
12:51 PM 62.1 °F 42.1 °F 48% 30.10 in 10.0 mi North 17.3 mph - N/A   Mostly Cloudy
1:51 PM 63.0 °F 44.1 °F 50% 30.10 in 10.0 mi North 19.6 mph - N/A   Mostly Cloudy
2:51 PM 64.9 °F 44.1 °F 47% 30.10 in 10.0 mi North 16.1 mph - N/A   Mostly Cloudy
3:51 PM 64.0 °F 45.3 °F 51% 30.10 in 10.0 mi North 8.1 mph - N/A   Mostly Cloudy
4:51 PM 63.9 °F 46.0 °F 52% 30.10 in 10.0 mi North 9.2 mph - N/A   Mostly Cloudy
5:51 PM 63.0 °F 45.9 °F 54% 30.11 in 10.0 mi North 8.1 mph - N/A   Scattered Clouds
6:51 PM 62.6 °F 45.5 °F 54% 30.12 in 10.0 mi North 8.1 mph - N/A   Scattered Clouds
7:51 PM 63.1 °F 46.0 °F 54% 30.12 in 10.0 mi North 9.2 mph - N/A   Mostly Cloudy
8:51 PM 57.7 °F 46.6 °F 66% 30.14 in 10.0 mi North 5.8 mph - N/A   Partly Cloudy
9:51 PM 55.4 °F 46.4 °F 72% 30.15 in 10.0 mi Calm Calm - N/A   Clear
10:51 PM 53.6 °F 46.4 °F 77% 30.15 in 10.0 mi Calm Calm - N/A   Clear
11:51 PM 51.1 °F 46.0 °F 83% 30.14 in 10.0 mi Calm Calm - N/A   Partly Cloudy